Perry, FL

3:23 AM EST on February 12, 2016 (GMT -0500)
Perry

Weather History for K40J - August, 2014

Change the Weather History Date:

Sunday, August 10, 2014

  Actual Average (KCTY) Record (KCTY)
Temperature  
Mean Temperature 79 °F 82 °F  
Max Temperature 87 °F 91 °F 96 °F (2007)
Min Temperature 71 °F 72 °F 66 °F (2002)
Degree Days  
Heating Degree Days 0 0  
Month to date heating degree days 0  
Since 1 June heating degree days 0  
Since 1 July heating degree days 0  
Cooling Degree Days 14 17  
Month to date cooling degree days 170  
Year to date cooling degree days 1604  
Since 1 June cooling degree days 1125  
Growing Degree Days 29 (Base 50)    
Moisture  
Dew Point 72 °F    
Average Humidity 81    
Maximum Humidity 100    
Minimum Humidity 58    
Precipitation  
Precipitation 0.07 in 0.21 in 0.34 in (2014)
Month to date precipitation 2.25  
Year to date precipitation 30.17  
Sea Level Pressure  
Sea Level Pressure 30.02 in    
Wind  
Wind Speed 2 mph (West)    
Max Wind Speed 14 mph    
Max Gust Speed 17 mph    
Visibility 10 miles    
Events Rain , Thunderstorm    
T = Trace of Precipitation, MM = Missing Value Source: NWS Daily Summary

Daily Weather History Graph

Daily Weather History Graph

Search for Another Location

Airport or City:

Trip Planner

Search our weather history database for the weather conditions in past years. The results will help you decide how hot, cold, wet, or windy it might be!

Date:

Astronomy

Aug. 10, 2014 Rise Set
Actual Time 6:58 AM EDT 8:20 PM EDT
Civil Twilight 6:33 AM EDT 8:45 PM EDT
Nautical Twilight 6:02 AM EDT 9:15 PM EDT
Astronomical Twilight 5:31 AM EDT 9:47 PM EDT
Moon 8:12 PM EDT (8/10) 6:46 AM EDT (8/10)
Length of Visible Light 14h 12m
Length of Day
13h 21m
Full, 100% of the Moon is Illuminated
Aug 10
Full
Aug 10
Full
Aug 17
Last Quarter
Aug 25
New
Sep 2
First Quarter

Hourly Weather History & Observations

Time (EDT) Temp. Heat Index Dew Point Humidity Pressure Visibility Wind Dir Wind Speed Gust Speed Precip Events Conditions
12:15 AM 77.0 °F - 69.8 °F 78% 30.03 in 10.0 mi WSW 4.6 mph - N/A   Clear
12:35 AM 77.0 °F - 69.8 °F 78% 30.03 in 10.0 mi Calm Calm - N/A   Clear
12:55 AM 75.2 °F - 69.8 °F 83% 30.03 in 10.0 mi Calm Calm - N/A   Clear
1:15 AM 75.2 °F - 69.8 °F 83% 30.03 in 10.0 mi Calm Calm - N/A   Clear
1:35 AM 73.4 °F - 69.8 °F 88% 30.03 in 10.0 mi Calm Calm - N/A   Clear
1:55 AM 73.4 °F - 69.8 °F 88% 30.02 in 10.0 mi Calm Calm - N/A   Clear
2:15 AM 73.4 °F - 69.8 °F 88% 30.01 in 10.0 mi Calm Calm - N/A   Clear
2:35 AM 73.4 °F - 69.8 °F 88% 30.00 in 10.0 mi Calm Calm - N/A   Clear
2:55 AM 73.4 °F - 69.8 °F 88% 30.00 in 10.0 mi Calm Calm - N/A   Clear
3:15 AM 73.4 °F - 69.8 °F 88% 30.00 in 10.0 mi Calm Calm - N/A   Clear
3:35 AM 73.4 °F - 69.8 °F 88% 30.00 in 10.0 mi Calm Calm - N/A   Clear
3:55 AM 73.4 °F - 69.8 °F 88% 30.00 in 10.0 mi Calm Calm - N/A   Clear
4:15 AM 71.6 °F - 69.8 °F 94% 30.00 in 10.0 mi Calm Calm - N/A   Clear
4:35 AM 71.6 °F - 69.8 °F 94% 30.00 in 10.0 mi Calm Calm - N/A   Clear
4:55 AM 71.6 °F - 71.6 °F 100% 30.00 in 10.0 mi Calm Calm - N/A   Scattered Clouds
5:15 AM 71.6 °F - 71.6 °F 100% 29.99 in 10.0 mi Calm Calm - N/A   Scattered Clouds
5:35 AM 71.6 °F - 71.6 °F 100% 29.99 in 10.0 mi Calm Calm - N/A   Clear
5:55 AM 71.6 °F - 71.6 °F 100% 29.99 in 10.0 mi Calm Calm - N/A   Clear
6:15 AM 71.6 °F - 71.6 °F 100% 30.00 in 10.0 mi Calm Calm - N/A   Clear
6:35 AM 71.6 °F - 71.6 °F 100% 30.00 in 10.0 mi Calm Calm - N/A   Clear
6:55 AM 71.6 °F - 71.6 °F 100% 30.01 in 10.0 mi Calm Calm - N/A   Clear
7:15 AM 71.6 °F - 71.6 °F 100% 30.02 in 10.0 mi Calm Calm - N/A   Scattered Clouds
7:35 AM 71.6 °F - 71.6 °F 100% 30.03 in 10.0 mi Calm Calm - N/A   Scattered Clouds
7:55 AM 73.4 °F - 73.4 °F 100% 30.03 in 10.0 mi Calm Calm - N/A   Scattered Clouds
8:15 AM 77.0 °F - 73.4 °F 89% 30.04 in 10.0 mi Calm Calm - N/A   Clear
8:35 AM 78.8 °F - 73.4 °F 83% 30.05 in 10.0 mi Calm Calm - N/A   Scattered Clouds
8:55 AM 78.8 °F - 73.4 °F 83% 30.05 in 10.0 mi Calm Calm - N/A   Scattered Clouds
9:15 AM 82.4 °F 89.5 °F 75.2 °F 79% 30.06 in 10.0 mi North 4.6 mph - N/A   Clear
9:35 AM 82.4 °F 88.2 °F 73.4 °F 74% 30.06 in 10.0 mi NNW 5.8 mph - N/A Rain Light Rain
9:55 AM 80.6 °F 85.4 °F 73.4 °F 79% 30.07 in 10.0 mi Calm Calm - N/A   Scattered Clouds
10:15 AM 77.0 °F - 71.6 °F 83% 30.07 in 2.5 mi WSW 8.1 mph 17.3 mph 0.07 in Rain Heavy Rain
10:35 AM 77.0 °F - 73.4 °F 89% 30.08 in 10.0 mi Calm Calm - 0.07 in   Scattered Clouds
10:55 AM 77.0 °F - 73.4 °F 89% 30.08 in 10.0 mi SW 5.8 mph - 0.07 in   Clear
11:15 AM 77.0 °F - 73.4 °F 89% 30.07 in 10.0 mi WSW 10.4 mph - N/A Thunderstorm Mostly Cloudy
11:35 AM 80.6 °F 85.4 °F 73.4 °F 79% 30.06 in 10.0 mi SSW 8.1 mph - N/A   Scattered Clouds
11:55 AM 82.4 °F 87.2 °F 71.6 °F 70% 30.05 in 10.0 mi WSW 4.6 mph - N/A Rain , Thunderstorm Light Thunderstorms and Rain
12:15 PM 82.4 °F 88.2 °F 73.4 °F 74% 30.06 in 10.0 mi West 6.9 mph - N/A Rain , Thunderstorm Light Thunderstorms and Rain
12:35 PM 86.0 °F 93.4 °F 73.4 °F 66% 30.07 in 10.0 mi WSW 6.9 mph - N/A Thunderstorm Thunderstorm
12:55 PM 82.4 °F 88.2 °F 73.4 °F 74% 30.06 in 10.0 mi NW 9.2 mph - N/A   Clear
1:15 PM 80.6 °F 85.4 °F 73.4 °F 79% 30.06 in 10.0 mi WNW 5.8 mph - N/A Thunderstorm Scattered Clouds
1:35 PM 78.8 °F - 71.6 °F 78% 30.05 in 10.0 mi WNW 6.9 mph - N/A Rain Light Rain
1:55 PM 78.8 °F - 71.6 °F 78% 30.05 in 10.0 mi West 4.6 mph - N/A   Clear
2:15 PM 78.8 °F - 71.6 °F 78% 30.05 in 10.0 mi Calm Calm - N/A   Clear
2:35 PM 78.8 °F - 71.6 °F 78% 30.04 in 10.0 mi West 3.5 mph - N/A   Clear
2:55 PM 82.4 °F 87.2 °F 71.6 °F 70% 30.04 in 10.0 mi West 3.5 mph - N/A   Clear
3:15 PM 84.2 °F 89.6 °F 71.6 °F 66% 30.04 in 10.0 mi West 6.9 mph - N/A   Clear
3:35 PM 87.8 °F 93.8 °F 71.6 °F 58% 30.04 in 10.0 mi WSW 8.1 mph - N/A   Clear
3:55 PM 87.8 °F 93.8 °F 71.6 °F 58% 30.02 in 10.0 mi SW 10.4 mph - N/A   Clear
4:15 PM 87.8 °F 95.6 °F 73.4 °F 62% 30.01 in 10.0 mi West 13.8 mph - N/A   Scattered Clouds
4:35 PM 87.8 °F 93.8 °F 71.6 °F 58% 29.99 in 10.0 mi West 10.4 mph 16.1 mph N/A   Scattered Clouds
4:55 PM 87.8 °F 93.8 °F 71.6 °F 58% 29.99 in 10.0 mi West 8.1 mph - N/A   Clear
5:15 PM 87.8 °F 93.8 °F 71.6 °F 58% 29.99 in 10.0 mi West 9.2 mph 16.1 mph N/A   Scattered Clouds
5:35 PM 86.0 °F 91.8 °F 71.6 °F 62% 30.00 in 10.0 mi West 8.1 mph - N/A   Scattered Clouds
5:55 PM 87.8 °F 95.6 °F 73.4 °F 62% 30.00 in 10.0 mi WSW 9.2 mph - N/A   Scattered Clouds
6:15 PM 86.0 °F 91.8 °F 71.6 °F 62% 30.01 in 10.0 mi WSW 9.2 mph - N/A   Clear
6:35 PM 84.2 °F 89.6 °F 71.6 °F 66% 30.00 in 10.0 mi West 8.1 mph - N/A   Clear
6:55 PM 84.2 °F 89.6 °F 71.6 °F 66% 29.99 in 10.0 mi West 4.6 mph - N/A   Clear
7:15 PM 82.4 °F 87.2 °F 71.6 °F 70% 29.99 in 10.0 mi WSW 4.6 mph - N/A   Clear
7:35 PM 82.4 °F 87.2 °F 71.6 °F 70% 29.98 in 10.0 mi SW 5.8 mph - N/A   Clear
7:55 PM 80.6 °F 84.6 °F 71.6 °F 74% 29.98 in 10.0 mi WSW 4.6 mph - N/A   Clear
8:15 PM 80.6 °F 85.4 °F 73.4 °F 79% 29.98 in 10.0 mi WSW 4.6 mph - N/A   Clear
8:35 PM 78.8 °F - 73.4 °F 83% 29.98 in 10.0 mi Calm Calm - N/A   Clear
8:55 PM 78.8 °F - 71.6 °F 78% 29.97 in 3.0 mi Calm Calm - N/A   Haze
9:15 PM 78.8 °F - 71.6 °F 78% 29.98 in 10.0 mi Calm Calm - N/A   Clear
9:35 PM 77.0 °F - 73.4 °F 89% 29.99 in 10.0 mi Calm Calm - N/A   Clear
9:55 PM 77.0 °F - 71.6 °F 83% 30.00 in 10.0 mi Calm Calm - N/A   Clear
10:15 PM 77.0 °F - 71.6 °F 83% 30.00 in 10.0 mi Calm Calm - N/A   Clear
10:35 PM 75.2 °F - 73.4 °F 94% 30.01 in 10.0 mi Calm Calm - N/A   Clear
10:55 PM 77.0 °F - 73.4 °F 89% 30.02 in 10.0 mi Calm Calm - N/A   Clear
11:15 PM 73.4 °F - 71.6 °F 94% 30.02 in 10.0 mi Calm Calm - N/A   Scattered Clouds
11:35 PM 75.2 °F - 73.4 °F 94% 30.02 in 10.0 mi Calm Calm - N/A   Scattered Clouds
11:55 PM 75.2 °F - 73.4 °F 94% 30.03 in 10.0 mi Calm Calm - N/A   Scattered Clouds